Flag for Poland Weather past 2 weeks in Poznan, Poland

Now
63 °F

Scattered clouds.


Feels Like: 63 °F
Forecast: 52 / 74 °F
Wind: 3 mph from Northeast

Location: Poznan Airport


UV Index: 3 (Moderate)

Visibility: N/A


Pressure: 30.12 "Hg

Humidity: 83%

Dew point: 57 °F

Location of PoznanLocation

Historic Weather in Poznan

°F

Poznan temperature yesterday

Maximum temperature yesterday: 72 °F (at 2:30 PM)
Minimum temperature yesterday: 48 °F (at 4:00 AM)
Average temperature yesterday: 61 °F

Past Weeks' High & Low Weather Summary

 TemperatureHumidityPressure
High72 °F (Apr 8, 1:00 PM)100% (Apr 11, 7:00 AM)30.39 "Hg (Apr 11, 7:00 AM)
Low30 °F (Apr 17, 3:00 AM)31% (Apr 17, 5:00 PM)29.62 "Hg (Apr 14, 12:00 PM)
Average51 °F72%29.98 "Hg
* Reported Apr 8 1:00 PM — Apr 23 1:00 PM, Poznan, Weather by CustomWeather, © 2014

Note: Actual official high and low records may vary slightly from our data, if they occured in-between our weather recording intervals... More about our weather records

Advertising

Historic Weather Conditions — Data for Previous 24 hours

 ConditionsComfort  
Time TempWeatherWind HumidityBarometerVisibility
1:00 PM
Apr 23
63 °FSprinkles. Scattered clouds.3 mph77%30.12 "HgN/A
12:30 PM63 °FLight rain. Scattered clouds.3 mph77%30.12 "HgN/A
12:00 PM63 °FScattered clouds.2 mph77%30.12 "HgN/A
11:30 AM61 °FPassing clouds.3 mph88%30.09 "HgN/A
11:00 AM59 °FPassing clouds.3 mph88%30.09 "HgN/A
10:30 AM59 °FClear.5 mph94%30.09 "Hg4 mi
10:00 AM59 °FLight rain. Passing clouds.3 mph94%30.09 "Hg4 mi
9:30 AM59 °FFog.6 mph94%30.09 "Hg3 mi
9:00 AM59 °FFog.5 mph94%30.09 "Hg3 mi
8:30 AM57 °FLight rain. Fog.2 mph94%30.07 "Hg1 mi
8:00 AM55 °FFog.3 mph100%30.07 "Hg1 mi
7:30 AM55 °FFog.3 mph100%30.07 "Hg2 mi
7:00 AM55 °FFog.2 mph94%30.07 "Hg1 mi
6:30 AM55 °FFog.1 mph94%30.07 "Hg1 mi
6:00 AM55 °FFog.2 mph94%30.04 "Hg1 mi
5:30 AM55 °FFog.1 mph94%30.04 "Hg1 mi
5:00 AM55 °FFog.1 mph94%30.04 "Hg2 mi
4:30 AM55 °FFog.1 mph94%30.01 "Hg0 mi
4:00 AM55 °FFog.2 mph94%30.01 "Hg1 mi
3:30 AM55 °FFog.2 mph94%30.01 "Hg4 mi
3:00 AM55 °FClear.1 mph94%30.01 "Hg5 mi
2:30 AM55 °FClear.3 mph94%30.01 "Hg10 mi
2:00 AM55 °FClear.1 mph100%30.01 "Hg10 mi
1:30 AM55 °FClear.3 mph100%30.01 "Hg10 mi
1:00 AM57 °FSprinkles. Passing clouds.2 mph94%30.01 "HgN/A
12:30 AM57 °FSprinkles. Passing clouds.5 mph94%30.01 "HgN/A
12:00 AM57 °FSprinkles. Passing clouds.2 mph94%30.01 "HgN/A
11:30 PM
Apr 22
59 °FSprinkles. Passing clouds.3 mph82%30.01 "HgN/A
11:00 PM59 °FThundershowers. Passing clouds.10 mph88%30.01 "HgN/A
10:30 PM61 °FThunderstorms. Passing clouds.1 mph83%29.98 "HgN/A
10:00 PM63 °FThunderstorms. Passing clouds.6 mph73%29.98 "HgN/A
9:30 PM63 °FClear.2 mph73%29.98 "Hg10 mi
9:00 PM63 °FSunny.5 mph68%29.95 "Hg10 mi
8:30 PM64 °FSunny.5 mph64%29.95 "Hg10 mi
8:00 PM64 °FSunny.2 mph60%29.95 "Hg10 mi
7:30 PM66 °FSunny.2 mph56%29.92 "Hg10 mi
7:00 PM68 °FSunny.1 mph53%29.92 "Hg10 mi
6:30 PM70 °FPassing clouds.2 mph43%29.92 "HgN/A
6:00 PM68 °FScattered clouds.3 mph49%29.92 "HgN/A
5:30 PM70 °FScattered clouds.6 mph46%29.89 "HgN/A
5:00 PM70 °FScattered clouds.7 mph43%29.89 "HgN/A
4:30 PM70 °FScattered clouds.8 mph40%29.89 "HgN/A
4:00 PM70 °FScattered clouds.8 mph40%29.89 "HgN/A
3:30 PM70 °FScattered clouds.8 mph40%29.89 "HgN/A
3:00 PM70 °FScattered clouds.7 mph43%29.89 "HgN/A
2:30 PM72 °FScattered clouds.7 mph44%29.89 "HgN/A
2:00 PM70 °FScattered clouds.7 mph43%29.89 "HgN/A
Weather by CustomWeather, © 2014

See weather overview